[[{"header":{"parameterUnit":"m.s-1","parameterCategory":1,"la1":30.2991,"la2":30.254,"lo1":-89.0895,"lo2":-89.0444,"dy":0.0017,"dx":0.0017,"nx":28,"ny":28,"refTime":"2024-06-20T21:00:00:Z","depth":0,"parameterNumber":2,"parameterNumberName":"U-component_of_WINDS"},"data":[0,0,0,0,0,0,0,0,0,0,0,0,0,0,0,0,0,0,0,0,0,0,0,0,0,0,0,0,0,0,0,0,0,0,0,0,0,0,0,0,0,0,0,0,0,0,0,0,0,0,0,0,0,0,0,0,0,0,-5.6506,-5.6508,0,-5.6618,-5.6619,-5.662,-5.6578,-5.6576,-5.6573,-5.6571,-5.6685,-5.669,-5.6696,0,0,0,0,0,0,0,0,0,0,0,0,0,-5.6261,-5.6266,-5.6506,-5.6508,-5.6509,-5.6617,-5.6619,-5.662,-5.6579,-5.6576,-5.6573,-5.657,-5.6683,-5.669,-5.6696,0,0,0,0,0,0,0,0,0,0,0,0,0,-5.6369,-5.6267,-5.6506,-5.6501,-5.6502,-5.6617,-5.6619,-5.6621,-5.658,-5.6576,-5.6572,-5.6568,-5.6681,-5.6689,-5.6697,-5.6823,0,0,-5.6722,-5.6725,0,0,0,0,0,0,0,0,-5.6363,-5.6378,-5.6501,-5.6502,-5.6503,-5.658,-5.6574,-5.6689,-5.6581,-5.655,-5.6571,-5.6567,-5.6653,-5.6663,-5.6693,-5.6828,-5.6833,-5.6723,-5.6727,-5.6731,-5.6733,0,0,0,0,0,0,0,-5.6356,-5.6373,-5.655,-5.6503,-5.6504,-5.6495,-5.6506,-5.6596,-5.6622,-5.6553,-5.655,-5.6564,-5.6653,-5.6685,-5.6695,-5.6835,-5.6722,-5.6729,-5.6734,-5.6738,-5.7082,-5.7086,0,0,0,0,0,0,-5.6348,-5.6367,-5.6547,-5.6554,-5.6422,-5.6502,-5.6515,-5.6559,-5.6621,-5.6626,-5.6567,-5.6561,-5.6673,-5.6686,-5.6699,-5.6851,-5.6731,-5.6738,-5.6743,-5.7078,-5.7083,-5.7087,0,0,0,0,0,0,-5.6342,-5.6364,-5.6542,-5.646,-5.6482,-5.651,-5.6561,-5.6563,-5.6595,-5.6631,-5.6636,-5.6594,-5.667,-5.6687,-5.6793,-5.6854,-5.6742,-5.6749,-5.7073,-5.7079,-5.7085,-5.7155,0,0,0,0,0,0,-5.6336,-5.6362,-5.641,-5.6461,-5.6486,-5.6634,-5.6565,-5.6568,-5.6609,-5.6603,-5.6658,-5.6664,-5.6669,-5.6781,-5.6801,-5.6863,-5.6756,-5.7067,-5.7076,-5.7083,-5.7147,-5.7163,-5.7177,0,0,0,0,0,-5.6327,-5.6424,-5.6412,-5.6434,-5.6546,-5.6637,-5.6652,-5.6655,-5.6614,-5.6662,-5.6686,-5.6662,-5.6845,-5.6792,-5.6814,-5.688,-5.7063,-5.7073,-5.7083,-5.7141,-5.716,-5.7176,0,0,0,0,0,0,-5.6378,-5.6431,-5.6418,-5.6535,-5.6582,-5.663,-5.669,-5.6675,-5.6735,-5.6727,-5.6729,-5.6742,-5.6851,-5.6876,-5.6817,-5.7006,-5.6948,-5.6963,-5.6985,-5.7003,-5.7018,-5.7008,-5.6763,0,0,0,0,0,-5.6404,-5.6473,-5.6515,-5.6615,-5.6639,-5.6661,-5.6701,-5.67,-5.6749,-5.6769,-5.68,-5.6849,-5.6917,-5.6962,-5.7027,-5.7152,-5.7164,-5.7209,-5.7223,-5.7235,-5.7247,-5.7316,-5.7336,-5.7119,-5.7119,-5.7119,0,0,-5.6456,-5.6493,-5.6536,-5.6626,-5.6662,-5.6735,-5.6678,-5.6756,-5.681,-5.6781,-5.6882,-5.6907,-5.6962,-5.7078,-5.7131,-5.7102,-5.731,-5.7247,-5.7256,-5.7262,-5.7328,-5.7348,-5.7366,-5.7126,-5.7125,-5.7123,0,0,-5.6587,-5.6623,-5.671,-5.6748,-5.6804,-5.6819,-5.684,-5.6892,-5.6907,-5.7009,-5.6989,-5.7054,-5.7172,-5.7212,-5.7248,-5.74,-5.738,-5.7421,-5.7496,-5.7563,-5.758,-5.7595,-5.7649,-5.7668,-5.7433,-5.7433,-5.7434,0,-5.6644,-5.6752,-5.6756,-5.6837,-5.6877,-5.6856,-5.6944,-5.6982,-5.7056,-5.7085,-5.7053,-5.7202,-5.7237,-5.7363,-5.74,-5.743,-5.7455,-5.7413,-5.7578,-5.7593,-5.7607,-5.7658,-5.7678,-5.7438,-5.7437,-5.7437,-5.7437,0,-5.682,-5.6895,-5.6959,-5.7032,-5.708,-5.7165,-5.7183,-5.7231,-5.7228,-5.7247,-5.7352,-5.7395,-5.7468,-5.7499,-5.7496,-5.7625,-5.7606,-5.7576,-5.7517,-5.7632,-5.768,-5.77,-5.7444,-5.7443,-5.7441,-5.744,0,0,-5.6982,-5.706,-5.7083,-5.7117,-5.7179,-5.7238,-5.7323,-5.7395,-5.7437,-5.7491,-5.7562,-5.7664,-5.7638,-5.7679,-5.7681,-5.7741,-5.7858,-5.7704,-5.7705,-5.773,-5.8003,-5.8023,-5.8046,-5.7847,-5.7851,-5.7854,-5.7998,0,-5.7118,-5.7265,-5.7273,-5.7408,-5.7478,-5.7461,-5.7535,-5.7582,-5.7603,-5.7666,-5.769,-5.7762,-5.7722,-5.7746,-5.7805,-5.7831,-5.7913,-5.7821,-5.7913,-5.7916,-5.7897,-5.8071,-5.8092,-5.8226,-5.8017,-5.802,-5.8023,0,-5.7294,-5.7354,-5.7495,-5.755,-5.7579,-5.7646,-5.7714,-5.7775,-5.7829,-5.7841,-5.7889,-5.7883,-5.7971,-5.7912,-5.8034,-5.7972,-5.8011,-5.803,-5.8035,-5.8042,-5.7974,-5.8081,-5.8269,-5.8289,-5.8052,-5.805,-5.8048,0,-5.7397,-5.7513,-5.7613,-5.7643,-5.7709,-5.7756,-5.7786,-5.7837,-5.7881,-5.7942,-5.7971,-5.8041,-5.8079,-5.8135,-5.8149,-5.8105,-5.8271,-5.8213,-5.8283,-5.8282,-5.8316,-5.8313,-5.8511,-5.8345,-5.8344,-5.8344,-5.8344,0,-5.7545,-5.7632,-5.766,-5.7721,-5.7819,-5.7829,-5.7926,-5.7953,-5.7999,-5.8066,-5.8057,-5.812,-5.8136,-5.8203,-5.8216,-5.8315,-5.8333,-5.8345,-5.8346,-5.8344,-5.8342,-5.8367,-5.8357,-5.8349,-5.8348,-5.8347,-5.8346,0,-5.7674,-5.7697,-5.7805,-5.786,-5.7876,-5.7946,-5.7994,-5.8053,-5.8075,-5.816,-5.8181,-5.8214,-5.8293,-5.8314,-5.8408,-5.8416,-5.8533,-5.8527,-5.8514,-5.8513,-5.8581,-5.8574,-5.88,-5.8831,-5.8646,-5.8648,-5.865,0,-5.7766,-5.7833,-5.7896,-5.7941,-5.7973,-5.8045,-5.809,-5.8104,-5.8152,-5.8221,-5.8273,-5.8351,-5.8413,-5.854,-5.8573,-5.8646,-5.864,-5.8715,-5.8651,-5.8647,-5.864,-5.8635,-5.8641,-5.8726,-5.8728,-5.8729,-5.8731,0,-5.7926,-5.7935,-5.8001,-5.8072,-5.8126,-5.8183,-5.8237,-5.8274,-5.8297,-5.8351,-5.8432,-5.8481,-5.8578,-5.8655,-5.8729,-5.8761,-5.875,-5.8751,-5.8771,-5.8768,-5.8757,-5.8763,-5.8545,-5.8745,-5.8744,-5.8742,-5.8742,-5.8741,-5.8039,-5.8098,-5.8152,-5.8226,-5.8269,-5.8321,-5.838,-5.841,-5.8477,-5.8557,-5.8562,-5.865,-5.8706,-5.8804,-5.8841,-5.891,-5.8888,-5.8916,-5.8923,-5.893,-5.8935,-5.8749,-5.8924,-5.8924,-5.8923,-5.8923,-5.8923,0,-5.8197,-5.8232,-5.8301,-5.8377,-5.8436,-5.8423,-5.8483,-5.8533,-5.861,-5.8663,-5.8726,-5.882,-5.8896,-5.8937,-5.9013,-5.9061,-5.9058,-5.908,-5.9075,-5.9083,-5.8951,-5.8926,-5.9082,-5.9081,-5.9081,-5.9081,-5.9081,-5.9081,-5.8286,-5.8385,-5.8401,-5.8522,-5.8557,-5.8643,-5.8678,-5.8727,-5.8769,-5.8874,-5.8938,-5.8964,-5.9013,-5.9094,-5.9163,-5.9174,-5.9201,-5.9226,-5.9234,-5.9109,-5.9092,-5.9077,-5.9053,-5.9233,-5.9233,-5.936,-5.9361,-5.9362]},{"header":{"parameterUnit":"m.s-1","parameterCategory":1,"la1":30.2991,"la2":30.254,"lo1":-89.0895,"lo2":-89.0444,"dy":0.0017,"dx":0.0017,"nx":28,"ny":28,"refTime":"2024-06-20T21:00:00:Z","depth":0,"parameterNumber":3,"parameterNumberName":"V-component_of_WINDS"},"data":[0,0,0,0,0,0,0,0,0,0,0,0,0,0,0,0,0,0,0,0,0,0,0,0,0,0,0,0,0,0,0,0,0,0,0,0,0,0,0,0,0,0,0,0,0,0,0,0,0,0,0,0,0,0,0,0,0,0,2.0369,2.0368,0,2.0281,2.028,2.0279,2.0293,2.0295,2.0297,2.0298,2.0195,2.0191,2.0187,0,0,0,0,0,0,0,0,0,0,0,0,0,2.0538,2.0535,2.0369,2.0368,2.0367,2.0281,2.028,2.0279,2.0293,2.0295,2.0297,2.0299,2.0196,2.0191,2.0186,0,0,0,0,0,0,0,0,0,0,0,0,0,2.0459,2.0534,2.0369,2.0364,2.0363,2.0281,2.028,2.0278,2.0293,2.0295,2.0297,2.03,2.0198,2.0192,2.0186,2.01,0,0,2.0166,2.0164,0,0,0,0,0,0,0,0,2.0463,2.0452,2.0366,2.0364,2.0362,2.0301,2.0302,2.0218,2.0292,2.0319,2.0298,2.0301,2.0227,2.0219,2.0197,2.0095,2.0091,2.0166,2.0162,2.0159,2.0158,0,0,0,0,0,0,0,2.0469,2.0456,2.0334,2.0364,2.0362,2.0362,2.0354,2.0286,2.026,2.0317,2.0318,2.0308,2.0227,2.0203,2.0194,2.0089,2.0166,2.016,2.0157,2.0154,1.9913,1.9911,0,0,0,0,0,0,2.0477,2.0461,2.0336,2.0331,2.042,2.0358,2.0348,2.0318,2.0262,2.0255,2.0306,2.0309,2.0212,2.0202,2.0191,2.0087,2.0159,2.0153,2.015,1.9916,1.9913,1.991,0,0,0,0,0,0,2.0481,2.0466,2.034,2.0396,2.038,2.0352,2.0319,2.0315,2.0291,2.0254,2.0248,2.0287,2.0214,2.02,2.0124,2.0084,2.0151,2.0145,1.9919,1.9915,1.9911,1.9878,0,0,0,0,0,0,2.0486,2.0468,2.0437,2.0396,2.0377,2.0277,2.0316,2.0312,2.0282,2.0285,2.0234,2.0228,2.0215,2.0133,2.0117,2.0076,2.014,1.9922,1.9917,1.9912,1.9883,1.9874,1.9866,0,0,0,0,0,2.0492,2.0428,2.0435,2.042,2.0339,2.0275,2.0264,2.0254,2.0279,2.0246,2.0222,2.0229,2.0091,2.0125,2.0107,2.0064,1.9925,1.9919,1.9913,1.9886,1.9875,1.9866,0,0,0,0,0,0,2.046,2.0422,2.043,2.0352,2.0317,2.0278,2.0236,2.0242,2.0196,2.02,2.0186,2.0175,2.0098,2.0073,2.0111,1.9978,2.0011,2.0001,1.9997,1.9986,1.9978,1.9984,2.0135,0,0,0,0,0,2.0445,2.04,2.0368,2.0301,2.0284,2.0263,2.0235,2.0231,2.0192,2.0176,2.0147,2.0106,2.0054,2.0019,1.9968,1.9881,1.9868,1.9842,1.9833,1.9827,1.9817,1.9769,1.9757,1.989,1.9891,1.9891,0,0,2.041,2.0385,2.0356,2.0294,2.0267,2.0217,2.025,2.0196,2.0158,2.0166,2.0094,2.0071,2.0024,1.9943,1.9905,1.9919,1.9779,1.9819,1.9814,1.9808,1.9762,1.9749,1.9738,1.9886,1.9887,1.9888,0,0,2.0323,2.03,2.0243,2.0216,2.0177,2.0164,2.015,2.0111,2.0097,2.0026,2.0032,1.9984,1.9894,1.9861,1.9833,1.9737,1.9741,1.9721,1.9675,1.9628,1.9618,1.9608,1.9573,1.9561,1.9712,1.9712,1.9712,0,2.0284,2.0214,2.0211,2.0158,2.0129,2.0141,2.0082,2.0054,1.9998,1.9977,1.9996,1.9885,1.9854,1.9765,1.9742,1.9719,1.9701,1.9725,1.9621,1.9611,1.9602,1.9568,1.9555,1.971,1.971,1.971,1.971,0,2.0168,2.0119,2.0077,2.0028,1.9996,1.9939,1.9925,1.9891,1.9891,1.9876,1.9802,1.9766,1.971,1.9688,1.9685,1.9598,1.9609,1.9625,1.9656,1.9587,1.9555,1.9542,1.9706,1.9707,1.9708,1.9709,0,0,2.0054,2.0009,1.9993,1.9971,1.993,1.989,1.9833,1.9783,1.9754,1.9715,1.9666,1.9592,1.9607,1.9574,1.9568,1.9527,1.9453,1.9547,1.9546,1.953,1.9353,1.9341,1.9326,1.9457,1.9455,1.9453,1.9357,0,1.9962,1.9867,1.9864,1.9775,1.9729,1.9741,1.9692,1.9659,1.9644,1.96,1.9581,1.9528,1.9553,1.9534,1.9494,1.947,1.9417,1.9477,1.9407,1.9404,1.9416,1.9309,1.9295,1.9206,1.9344,1.9342,1.9341,0,1.9841,1.9805,1.9713,1.968,1.966,1.9617,1.9571,1.953,1.9492,1.9484,1.945,1.945,1.939,1.9427,1.9341,1.9383,1.9354,1.9338,1.9335,1.9325,1.9367,1.9295,1.9178,1.9164,1.9321,1.9323,1.9324,0,1.9766,1.9693,1.963,1.9611,1.9571,1.954,1.9521,1.9487,1.9458,1.9416,1.9397,1.9347,1.9319,1.9279,1.9266,1.9294,1.918,1.9216,1.9169,1.9169,1.9141,1.9143,1.9016,1.9127,1.9127,1.9127,1.9127,0,1.9662,1.9605,1.9596,1.9556,1.9492,1.9489,1.9424,1.9407,1.9377,1.9332,1.9339,1.9295,1.9281,1.9234,1.9223,1.9153,1.914,1.9129,1.9127,1.9128,1.9129,1.9106,1.9111,1.9124,1.9124,1.9125,1.9126,0,1.9566,1.9558,1.9489,1.946,1.9451,1.9405,1.9377,1.9338,1.9325,1.9268,1.9254,1.9232,1.9178,1.9162,1.9094,1.9087,1.9005,1.9008,1.9019,1.9018,1.8971,1.8975,1.8823,1.8802,1.8929,1.8928,1.8927,0,1.95,1.9457,1.9424,1.9397,1.9379,1.9334,1.9305,1.93,1.9269,1.9226,1.9191,1.9139,1.9096,1.9009,1.8984,1.8933,1.8934,1.8885,1.8926,1.8929,1.8931,1.8933,1.8928,1.8876,1.8874,1.8873,1.8872,0,1.9382,1.9381,1.9342,1.9301,1.9268,1.9235,1.9202,1.9179,1.9169,1.9133,1.9081,1.9049,1.8984,1.893,1.888,1.8856,1.8861,1.8861,1.8847,1.8846,1.8853,1.8847,1.8995,1.8863,1.8864,1.8865,1.8865,1.8866,1.9297,1.926,1.9233,1.9188,1.9165,1.9136,1.9098,1.9083,1.904,1.899,1.8989,1.8931,1.8895,1.8829,1.8803,1.8756,1.8769,1.8749,1.8744,1.8738,1.8734,1.8864,1.8746,1.8747,1.8747,1.8747,1.8747,0,1.9179,1.9163,1.9123,1.908,1.9045,1.906,1.9026,1.8994,1.8945,1.8914,1.8874,1.8813,1.8763,1.8736,1.8685,1.8652,1.8653,1.8639,1.8639,1.8634,1.8725,1.8742,1.8639,1.8639,1.8639,1.8639,1.8639,1.8639,1.9113,1.9051,1.9047,1.8974,1.8957,1.8904,1.8883,1.8855,1.8831,1.8764,1.8724,1.871,1.8679,1.8627,1.858,1.8574,1.8553,1.8537,1.8531,1.8616,1.8627,1.8638,1.8653,1.8533,1.8533,1.8444,1.8443,1.8442]}]]